Year,Month,Day,Hour,Minute,Value (Times are PST for temperature in C)
2015,06,30,00,00,21.10
2015,06,30,00,01,21.10
2015,06,30,00,02,21.00
2015,06,30,00,03,21.00
2015,06,30,00,04,20.90
2015,06,30,00,05,20.90
2015,06,30,00,06,20.90
2015,06,30,00,07,20.80
2015,06,30,00,08,20.80
2015,06,30,00,09,20.80
2015,06,30,00,10,20.70
2015,06,30,00,11,20.70
2015,06,30,00,12,20.70
2015,06,30,00,13,20.60
2015,06,30,00,14,20.60
2015,06,30,00,15,20.60
2015,06,30,00,16,20.60
2015,06,30,00,17,20.60
2015,06,30,00,18,20.60
2015,06,30,00,19,20.60
2015,06,30,00,20,20.50
2015,06,30,00,21,20.50
2015,06,30,00,22,20.40
2015,06,30,00,23,20.30
2015,06,30,00,24,20.30
2015,06,30,00,25,20.20
2015,06,30,00,26,20.20
2015,06,30,00,27,20.20
2015,06,30,00,28,20.20
2015,06,30,00,29,20.20
2015,06,30,00,30,20.20
2015,06,30,00,31,20.20
2015,06,30,00,32,20.20
2015,06,30,00,33,20.20
2015,06,30,00,34,20.20
2015,06,30,00,35,20.20
2015,06,30,00,36,20.20
2015,06,30,00,37,20.20
2015,06,30,00,38,20.20
2015,06,30,00,39,20.10
2015,06,30,00,40,20.10
2015,06,30,00,41,20.10
2015,06,30,00,42,19.90
2015,06,30,00,43,19.90
2015,06,30,00,44,19.90
2015,06,30,00,45,19.80
2015,06,30,00,46,19.80
2015,06,30,00,47,19.70
2015,06,30,00,48,19.70
2015,06,30,00,49,19.60
2015,06,30,00,50,19.60
2015,06,30,00,51,19.50
2015,06,30,00,52,19.50
2015,06,30,00,53,19.40
2015,06,30,00,54,19.40
2015,06,30,00,55,19.30
2015,06,30,00,56,19.30
2015,06,30,00,57,19.30
2015,06,30,00,58,19.20
2015,06,30,00,59,19.20
2015,06,30,01,00,19.10
2015,06,30,01,01,19.10
2015,06,30,01,02,19.10
2015,06,30,01,03,19.10
2015,06,30,01,04,19.10
2015,06,30,01,05,19.10
2015,06,30,01,06,19.10
2015,06,30,01,07,19.10
2015,06,30,01,08,19.10
2015,06,30,01,09,19.10
2015,06,30,01,10,19.10
2015,06,30,01,11,19.10
2015,06,30,01,12,19.10
2015,06,30,01,13,19.10
2015,06,30,01,14,19.10
2015,06,30,01,15,19.00
2015,06,30,01,16,18.90
2015,06,30,01,17,18.90
2015,06,30,01,18,19.00
2015,06,30,01,19,19.10
2015,06,30,01,20,19.10
2015,06,30,01,21,19.10
2015,06,30,01,22,19.10
2015,06,30,01,23,19.10
2015,06,30,01,24,19.10
2015,06,30,01,25,19.10
2015,06,30,01,26,19.10
2015,06,30,01,27,19.10
2015,06,30,01,28,19.10
2015,06,30,01,29,19.00
2015,06,30,01,30,18.90
2015,06,30,01,31,18.90
2015,06,30,01,32,18.90
2015,06,30,01,33,18.90
2015,06,30,01,34,18.90
2015,06,30,01,35,18.90
2015,06,30,01,36,18.90
2015,06,30,01,37,18.80
2015,06,30,01,38,18.80
2015,06,30,01,39,18.80
2015,06,30,01,40,18.70
2015,06,30,01,41,18.70
2015,06,30,01,42,18.70
2015,06,30,01,43,18.70
2015,06,30,01,44,18.60
2015,06,30,01,45,18.60
2015,06,30,01,46,18.60
2015,06,30,01,47,18.60
2015,06,30,01,48,18.60
2015,06,30,01,49,18.50
2015,06,30,01,50,18.50
2015,06,30,01,51,18.50
2015,06,30,01,52,18.50
2015,06,30,01,53,18.50
2015,06,30,01,54,18.40
2015,06,30,01,55,18.40
2015,06,30,01,56,18.40
2015,06,30,01,57,18.40
2015,06,30,01,58,18.40
2015,06,30,01,59,18.30
2015,06,30,02,00,18.30
2015,06,30,02,01,18.30
2015,06,30,02,02,18.20
2015,06,30,02,03,18.20
2015,06,30,02,04,18.20
2015,06,30,02,05,18.20
2015,06,30,02,06,18.20
2015,06,30,02,07,18.10
2015,06,30,02,08,18.10
2015,06,30,02,09,18.10
2015,06,30,02,10,18.10
2015,06,30,02,11,18.10
2015,06,30,02,12,18.10
2015,06,30,02,13,18.00
2015,06,30,02,14,17.90
2015,06,30,02,15,17.90
2015,06,30,02,16,17.90
2015,06,30,02,17,17.90
2015,06,30,02,18,17.90
2015,06,30,02,19,17.90
2015,06,30,02,20,17.90
2015,06,30,02,21,17.90
2015,06,30,02,22,17.80
2015,06,30,02,23,17.80
2015,06,30,02,24,17.80
2015,06,30,02,25,17.80
2015,06,30,02,26,17.80
2015,06,30,02,27,17.80
2015,06,30,02,28,17.80
2015,06,30,02,29,17.80
2015,06,30,02,30,17.80
2015,06,30,02,31,17.80
2015,06,30,02,32,17.70
2015,06,30,02,33,17.70
2015,06,30,02,34,17.70
2015,06,30,02,35,17.70
2015,06,30,02,36,17.70
2015,06,30,02,37,17.70
2015,06,30,02,38,17.70
2015,06,30,02,39,17.70
2015,06,30,02,40,17.70
2015,06,30,02,41,17.70
2015,06,30,02,42,17.70
2015,06,30,02,43,17.60
2015,06,30,02,44,17.60
2015,06,30,02,45,17.60
2015,06,30,02,46,17.60
2015,06,30,02,47,17.60
2015,06,30,02,48,17.60
2015,06,30,02,49,17.60
2015,06,30,02,50,17.60
2015,06,30,02,51,17.60
2015,06,30,02,52,17.60
2015,06,30,02,53,17.60
2015,06,30,02,54,17.60
2015,06,30,02,55,17.60
2015,06,30,02,56,17.60
2015,06,30,02,57,17.60
2015,06,30,02,58,17.60
2015,06,30,02,59,17.60
2015,06,30,03,00,17.60
2015,06,30,03,01,17.60
2015,06,30,03,02,17.60
2015,06,30,03,03,17.60
2015,06,30,03,04,17.60
2015,06,30,03,05,17.60
2015,06,30,03,06,17.60
2015,06,30,03,07,17.60
2015,06,30,03,08,17.60
2015,06,30,03,09,17.60
2015,06,30,03,10,17.60
2015,06,30,03,11,17.60
2015,06,30,03,12,17.60
2015,06,30,03,13,17.60
2015,06,30,03,14,17.60
2015,06,30,03,15,17.60
2015,06,30,03,16,17.60
2015,06,30,03,17,17.50
2015,06,30,03,18,17.50
2015,06,30,03,19,17.50
2015,06,30,03,20,17.40
2015,06,30,03,21,17.40
2015,06,30,03,22,17.30
2015,06,30,03,23,17.30
2015,06,30,03,24,17.30
2015,06,30,03,25,17.30
2015,06,30,03,26,17.20
2015,06,30,03,27,17.20
2015,06,30,03,28,17.20
2015,06,30,03,29,17.10
2015,06,30,03,30,17.10
2015,06,30,03,31,17.10
2015,06,30,03,32,17.10
2015,06,30,03,33,17.00
2015,06,30,03,34,17.00
2015,06,30,03,35,17.00
2015,06,30,03,36,17.00
2015,06,30,03,37,17.00
2015,06,30,03,38,17.00
2015,06,30,03,39,17.00
2015,06,30,03,40,16.90
2015,06,30,03,41,16.90
2015,06,30,03,42,16.90
2015,06,30,03,43,16.90
2015,06,30,03,44,16.90
2015,06,30,03,45,16.90
2015,06,30,03,46,16.90
2015,06,30,03,47,16.80
2015,06,30,03,48,16.80
2015,06,30,03,49,16.80
2015,06,30,03,50,16.70
2015,06,30,03,51,16.70
2015,06,30,03,52,16.70
2015,06,30,03,53,16.70
2015,06,30,03,54,16.70
2015,06,30,03,55,16.70
2015,06,30,03,56,16.70
2015,06,30,03,57,16.70
2015,06,30,03,58,16.70
2015,06,30,03,59,16.60
2015,06,30,04,00,16.60
2015,06,30,04,01,16.60
2015,06,30,04,02,16.60
2015,06,30,04,03,16.60
2015,06,30,04,04,16.50
2015,06,30,04,05,16.50
2015,06,30,04,06,16.40
2015,06,30,04,07,16.40
2015,06,30,04,08,16.50
2015,06,30,04,09,16.60
2015,06,30,04,10,16.60
2015,06,30,04,11,16.60
2015,06,30,04,12,16.60
2015,06,30,04,13,16.60
2015,06,30,04,14,16.60
2015,06,30,04,15,16.60
2015,06,30,04,16,16.50
2015,06,30,04,17,16.40
2015,06,30,04,18,16.40
2015,06,30,04,19,16.40
2015,06,30,04,20,16.40
2015,06,30,04,21,16.40
2015,06,30,04,22,16.40
2015,06,30,04,23,16.40
2015,06,30,04,24,16.40
2015,06,30,04,25,16.40
2015,06,30,04,26,16.40
2015,06,30,04,27,16.40
2015,06,30,04,28,16.40
2015,06,30,04,29,16.40
2015,06,30,04,30,16.40
2015,06,30,04,31,16.30
2015,06,30,04,32,16.30
2015,06,30,04,33,16.30
2015,06,30,04,34,16.30
2015,06,30,04,35,16.30
2015,06,30,04,36,16.30
2015,06,30,04,37,16.30
2015,06,30,04,38,16.30
2015,06,30,04,39,16.30
2015,06,30,04,40,16.20
2015,06,30,04,41,16.20
2015,06,30,04,42,16.20
2015,06,30,04,43,16.20
2015,06,30,04,44,16.20
2015,06,30,04,45,16.20
2015,06,30,04,46,16.20
2015,06,30,04,47,16.20
2015,06,30,04,48,16.20
2015,06,30,04,49,16.20
2015,06,30,04,50,16.20
2015,06,30,04,51,16.10
2015,06,30,04,52,16.10
2015,06,30,04,53,16.20
2015,06,30,04,54,16.20
2015,06,30,04,55,16.20
2015,06,30,04,56,16.20
2015,06,30,04,57,16.10
2015,06,30,04,58,16.10
2015,06,30,04,59,16.10
2015,06,30,05,00,16.10
2015,06,30,05,01,16.10
2015,06,30,05,02,16.10
2015,06,30,05,03,16.10
2015,06,30,05,04,16.10
2015,06,30,05,05,16.10
2015,06,30,05,06,16.10
2015,06,30,05,07,16.10
2015,06,30,05,08,16.10
2015,06,30,05,09,16.10
2015,06,30,05,10,16.10
2015,06,30,05,11,16.10
2015,06,30,05,12,16.10
2015,06,30,05,13,16.10
2015,06,30,05,14,16.10
2015,06,30,05,15,16.00
2015,06,30,05,16,15.90
2015,06,30,05,17,15.90
2015,06,30,05,18,15.90
2015,06,30,05,19,15.80
2015,06,30,05,20,15.80
2015,06,30,05,21,15.80
2015,06,30,05,22,15.80
2015,06,30,05,23,15.80
2015,06,30,05,24,15.80
2015,06,30,05,25,15.80
2015,06,30,05,26,15.80
2015,06,30,05,27,15.80
2015,06,30,05,28,15.80
2015,06,30,05,29,15.80
2015,06,30,05,30,15.80
2015,06,30,05,31,15.80
2015,06,30,05,32,15.80
2015,06,30,05,33,15.80
2015,06,30,05,34,15.80
2015,06,30,05,35,15.80
2015,06,30,05,36,15.80
2015,06,30,05,37,15.80
2015,06,30,05,38,15.80
2015,06,30,05,39,15.80
2015,06,30,05,40,15.80
2015,06,30,05,41,15.90
2015,06,30,05,42,15.90
2015,06,30,05,43,16.00
2015,06,30,05,44,16.10
2015,06,30,05,45,16.10
2015,06,30,05,46,16.10
2015,06,30,05,47,16.10
2015,06,30,05,48,16.20
2015,06,30,05,49,16.20
2015,06,30,05,50,16.20
2015,06,30,05,51,16.20
2015,06,30,05,52,16.20
2015,06,30,05,53,16.30
2015,06,30,05,54,16.30
2015,06,30,05,55,16.40
2015,06,30,05,56,16.40
2015,06,30,05,57,16.50
2015,06,30,05,58,16.60
2015,06,30,05,59,16.60
2015,06,30,06,00,16.70
2015,06,30,06,01,16.70
2015,06,30,06,02,16.70
2015,06,30,06,03,16.80
2015,06,30,06,04,16.80
2015,06,30,06,05,16.80
2015,06,30,06,06,16.90
2015,06,30,06,07,16.90
2015,06,30,06,08,16.90
2015,06,30,06,09,16.90
2015,06,30,06,10,17.00
2015,06,30,06,11,17.00
2015,06,30,06,12,17.00
2015,06,30,06,13,17.00
2015,06,30,06,14,17.10
2015,06,30,06,15,17.10
2015,06,30,06,16,17.10
2015,06,30,06,17,17.20
2015,06,30,06,18,17.30
2015,06,30,06,19,17.40
2015,06,30,06,20,17.50
2015,06,30,06,21,17.60
2015,06,30,06,22,17.80
2015,06,30,06,23,17.90
2015,06,30,06,24,18.00
2015,06,30,06,25,18.10
2015,06,30,06,26,18.20
2015,06,30,06,27,18.20
2015,06,30,06,28,18.30
2015,06,30,06,29,18.40
2015,06,30,06,30,18.40
2015,06,30,06,31,18.50
2015,06,30,06,32,18.50
2015,06,30,06,33,18.50
2015,06,30,06,34,18.50
2015,06,30,06,35,18.60
2015,06,30,06,36,18.60
2015,06,30,06,37,18.60
2015,06,30,06,38,18.70
2015,06,30,06,39,18.70
2015,06,30,06,40,18.70
2015,06,30,06,41,18.70
2015,06,30,06,42,18.80
2015,06,30,06,43,18.80
2015,06,30,06,44,18.90
2015,06,30,06,45,18.90
2015,06,30,06,46,19.00
2015,06,30,06,47,19.10
2015,06,30,06,48,19.10
2015,06,30,06,49,19.10
2015,06,30,06,50,19.20
2015,06,30,06,51,19.20
2015,06,30,06,52,19.20
2015,06,30,06,53,19.20
2015,06,30,06,54,19.10
2015,06,30,06,55,19.10
2015,06,30,06,56,19.10
2015,06,30,06,57,19.10
2015,06,30,06,58,19.10
2015,06,30,06,59,19.10
2015,06,30,07,00,19.10
2015,06,30,07,01,19.10
2015,06,30,07,02,19.10
2015,06,30,07,03,19.10
2015,06,30,07,04,19.10
2015,06,30,07,05,19.10
2015,06,30,07,06,19.10
2015,06,30,07,07,19.10
2015,06,30,07,08,19.10
2015,06,30,07,09,19.20
2015,06,30,07,10,19.20
2015,06,30,07,11,19.20
2015,06,30,07,12,19.30
2015,06,30,07,13,19.40
2015,06,30,07,14,19.40
2015,06,30,07,15,19.50
2015,06,30,07,16,19.50
2015,06,30,07,17,19.50
2015,06,30,07,18,19.50
2015,06,30,07,19,19.50
2015,06,30,07,20,19.50
2015,06,30,07,21,19.50
2015,06,30,07,22,19.50
2015,06,30,07,23,19.60
2015,06,30,07,24,19.60
2015,06,30,07,25,19.60
2015,06,30,07,26,19.70
2015,06,30,07,27,19.70
2015,06,30,07,28,19.80
2015,06,30,07,29,19.80
2015,06,30,07,30,19.80
2015,06,30,07,31,19.90
2015,06,30,07,32,19.90
2015,06,30,07,33,19.90
2015,06,30,07,34,20.00
2015,06,30,07,35,20.10
2015,06,30,07,36,20.20
2015,06,30,07,37,20.20
2015,06,30,07,38,20.20
2015,06,30,07,39,20.20
2015,06,30,07,40,20.20
2015,06,30,07,41,20.20
2015,06,30,07,42,20.20
2015,06,30,07,43,20.20
2015,06,30,07,44,20.20
2015,06,30,07,45,20.20
2015,06,30,07,46,20.20
2015,06,30,07,47,20.30
2015,06,30,07,48,20.30
2015,06,30,07,49,20.40
2015,06,30,07,50,20.50
2015,06,30,07,51,20.50
2015,06,30,07,52,20.60
2015,06,30,07,53,20.60
2015,06,30,07,54,20.60
2015,06,30,07,55,20.60
2015,06,30,07,56,20.70
2015,06,30,07,57,20.70
2015,06,30,07,58,20.60
2015,06,30,07,59,20.70
2015,06,30,08,00,20.70
2015,06,30,08,01,20.70
2015,06,30,08,02,20.80
2015,06,30,08,03,20.80
2015,06,30,08,04,20.90
2015,06,30,08,05,21.00
2015,06,30,08,06,21.10
2015,06,30,08,07,21.10
2015,06,30,08,08,21.20
2015,06,30,08,09,21.30
2015,06,30,08,10,21.30
2015,06,30,08,11,21.30
2015,06,30,08,12,21.20
2015,06,30,08,13,21.10
2015,06,30,08,14,21.10
2015,06,30,08,15,21.20
2015,06,30,08,16,21.20
2015,06,30,08,17,21.30
2015,06,30,08,18,21.30
2015,06,30,08,19,21.40
2015,06,30,08,20,21.40
2015,06,30,08,21,21.50
2015,06,30,08,22,21.60
2015,06,30,08,23,21.60
2015,06,30,08,24,21.60
2015,06,30,08,25,21.70
2015,06,30,08,26,21.80
2015,06,30,08,27,21.90
2015,06,30,08,28,22.00
2015,06,30,08,29,22.10
2015,06,30,08,30,22.10
2015,06,30,08,31,22.20
2015,06,30,08,32,22.20
2015,06,30,08,33,22.30
2015,06,30,08,34,22.30
2015,06,30,08,35,22.20
2015,06,30,08,36,22.10
2015,06,30,08,37,22.10
2015,06,30,08,38,22.00
2015,06,30,08,39,22.00
2015,06,30,08,40,22.00
2015,06,30,08,41,22.00
2015,06,30,08,42,22.10
2015,06,30,08,43,22.20
2015,06,30,08,44,22.30
2015,06,30,08,45,22.30
2015,06,30,08,46,22.40
2015,06,30,08,47,22.50
2015,06,30,08,48,22.60
2015,06,30,08,49,22.60
2015,06,30,08,50,22.60
2015,06,30,08,51,22.70
2015,06,30,08,52,22.80
2015,06,30,08,53,22.90
2015,06,30,08,54,22.90
2015,06,30,08,55,22.90
2015,06,30,08,56,22.90
2015,06,30,08,57,23.00
2015,06,30,08,58,23.10
2015,06,30,08,59,23.20
2015,06,30,09,00,23.20
2015,06,30,09,01,23.20
2015,06,30,09,02,23.30
2015,06,30,09,03,23.30
2015,06,30,09,04,23.30
2015,06,30,09,05,23.30
2015,06,30,09,06,23.40
2015,06,30,09,07,23.50
2015,06,30,09,08,23.60
2015,06,30,09,09,23.70
2015,06,30,09,10,23.60
2015,06,30,09,11,23.50
2015,06,30,09,12,23.40
2015,06,30,09,13,23.40
2015,06,30,09,14,23.30
2015,06,30,09,15,23.20
2015,06,30,09,16,23.20
2015,06,30,09,17,23.10
2015,06,30,09,18,23.10
2015,06,30,09,19,23.20
2015,06,30,09,20,23.10
2015,06,30,09,21,23.10
2015,06,30,09,22,23.20
2015,06,30,09,23,23.30
2015,06,30,09,24,23.30
2015,06,30,09,25,23.30
2015,06,30,09,26,23.30
2015,06,30,09,27,23.30
2015,06,30,09,28,23.30
2015,06,30,09,29,23.40
2015,06,30,09,30,23.60
2015,06,30,09,31,23.70
2015,06,30,09,32,23.90
2015,06,30,09,33,24.00
2015,06,30,09,34,24.10
2015,06,30,09,35,24.10
2015,06,30,09,36,24.20
2015,06,30,09,37,24.20
2015,06,30,09,38,24.20
2015,06,30,09,39,24.30
2015,06,30,09,40,24.40
2015,06,30,09,41,24.40
2015,06,30,09,42,24.40
2015,06,30,09,43,24.50
2015,06,30,09,44,24.60
2015,06,30,09,45,24.70
2015,06,30,09,46,24.70
2015,06,30,09,47,24.70
2015,06,30,09,48,24.70
2015,06,30,09,49,24.60
2015,06,30,09,50,24.70
2015,06,30,09,51,24.70
2015,06,30,09,52,24.60
2015,06,30,09,53,24.60
2015,06,30,09,54,24.50
2015,06,30,09,55,24.40
2015,06,30,09,56,24.40
2015,06,30,09,57,24.40
2015,06,30,09,58,24.40
2015,06,30,09,59,24.40
2015,06,30,10,00,24.40
2015,06,30,10,01,24.40
2015,06,30,10,02,24.50
2015,06,30,10,03,24.60
2015,06,30,10,04,24.60
2015,06,30,10,05,24.50
2015,06,30,10,06,24.50
2015,06,30,10,07,24.60
2015,06,30,10,08,24.60
2015,06,30,10,09,24.60
2015,06,30,10,10,24.60
2015,06,30,10,11,24.60
2015,06,30,10,12,24.60
2015,06,30,10,13,24.60
2015,06,30,10,14,24.60
2015,06,30,10,15,24.60
2015,06,30,10,16,24.60
2015,06,30,10,17,24.70
2015,06,30,10,18,24.80
2015,06,30,10,19,24.80
2015,06,30,10,20,24.80
2015,06,30,10,21,24.70
2015,06,30,10,22,24.70
2015,06,30,10,23,24.60
2015,06,30,10,24,24.60
2015,06,30,10,25,24.70
2015,06,30,10,26,24.70
2015,06,30,10,27,24.90
2015,06,30,10,28,25.20
2015,06,30,10,29,25.20
2015,06,30,10,30,25.20
2015,06,30,10,31,25.10
2015,06,30,10,32,25.10
2015,06,30,10,33,25.10
2015,06,30,10,34,25.10
2015,06,30,10,35,25.20
2015,06,30,10,36,25.30
2015,06,30,10,37,25.20
2015,06,30,10,38,25.20
2015,06,30,10,39,25.20
2015,06,30,10,40,25.20
2015,06,30,10,41,25.20
2015,06,30,10,42,25.20
2015,06,30,10,43,25.20
2015,06,30,10,44,25.30
2015,06,30,10,45,25.50
2015,06,30,10,46,25.60
2015,06,30,10,47,25.70
2015,06,30,10,48,25.90
2015,06,30,10,49,25.90
2015,06,30,10,50,25.80
2015,06,30,10,51,25.60
2015,06,30,10,52,25.50
2015,06,30,10,53,25.40
2015,06,30,10,54,25.30
2015,06,30,10,55,25.20
2015,06,30,10,56,25.20
2015,06,30,10,57,25.30
2015,06,30,10,58,25.40
2015,06,30,10,59,25.40
2015,06,30,11,00,25.40
2015,06,30,11,01,25.50
2015,06,30,11,02,25.50
2015,06,30,11,03,25.60
2015,06,30,11,04,25.80
2015,06,30,11,05,25.80
2015,06,30,11,06,25.90
2015,06,30,11,07,26.00
2015,06,30,11,08,26.00
2015,06,30,11,09,26.00
2015,06,30,11,10,26.00
2015,06,30,11,11,25.90
2015,06,30,11,12,25.90
2015,06,30,11,13,25.80
2015,06,30,11,14,25.70
2015,06,30,11,15,25.70
2015,06,30,11,16,25.70
2015,06,30,11,17,25.70
2015,06,30,11,18,25.50
2015,06,30,11,19,25.50
2015,06,30,11,20,25.60
2015,06,30,11,21,25.70
2015,06,30,11,22,25.70
2015,06,30,11,23,25.80
2015,06,30,11,24,25.90
2015,06,30,11,25,26.00
2015,06,30,11,26,26.10
2015,06,30,11,27,26.00
2015,06,30,11,28,26.00
2015,06,30,11,29,25.90
2015,06,30,11,30,25.80
2015,06,30,11,31,25.90
2015,06,30,11,32,26.00
2015,06,30,11,33,26.00
2015,06,30,11,34,25.90
2015,06,30,11,35,25.90
2015,06,30,11,36,25.90
2015,06,30,11,37,26.00
2015,06,30,11,38,26.00
2015,06,30,11,39,26.00
2015,06,30,11,40,26.00
2015,06,30,11,41,26.10
2015,06,30,11,42,26.20
2015,06,30,11,43,26.20
2015,06,30,11,44,26.20
2015,06,30,11,45,26.20
2015,06,30,11,46,26.40
2015,06,30,11,47,26.60
2015,06,30,11,48,26.80
2015,06,30,11,49,26.80
2015,06,30,11,50,26.80
2015,06,30,11,51,26.70
2015,06,30,11,52,26.50
2015,06,30,11,53,26.40
2015,06,30,11,54,26.40
2015,06,30,11,55,26.30
2015,06,30,11,56,26.30
2015,06,30,11,57,26.40
2015,06,30,11,58,26.40
2015,06,30,11,59,26.30
2015,06,30,12,00,26.10
2015,06,30,12,01,26.00
2015,06,30,12,02,26.10
2015,06,30,12,03,26.20
2015,06,30,12,04,26.30
2015,06,30,12,05,26.30
2015,06,30,12,06,26.30
2015,06,30,12,07,26.20
2015,06,30,12,08,26.30
2015,06,30,12,09,26.30
2015,06,30,12,10,26.40
2015,06,30,12,11,26.40
2015,06,30,12,12,26.40
2015,06,30,12,13,26.30
2015,06,30,12,14,26.30
2015,06,30,12,15,26.20
2015,06,30,12,16,26.10
2015,06,30,12,17,26.20
2015,06,30,12,18,26.20
2015,06,30,12,19,26.20
2015,06,30,12,20,26.20
2015,06,30,12,21,26.20
2015,06,30,12,22,26.30
2015,06,30,12,23,26.40
2015,06,30,12,24,26.60
2015,06,30,12,25,26.60
2015,06,30,12,26,26.60
2015,06,30,12,27,26.50
2015,06,30,12,28,26.50
2015,06,30,12,29,26.60
2015,06,30,12,30,26.60
2015,06,30,12,31,26.60
2015,06,30,12,32,26.60
2015,06,30,12,33,26.60
2015,06,30,12,34,26.60
2015,06,30,12,35,26.60
2015,06,30,12,36,26.70
2015,06,30,12,37,26.70
2015,06,30,12,38,26.80
2015,06,30,12,39,26.80
2015,06,30,12,40,26.80
2015,06,30,12,41,26.80
2015,06,30,12,42,26.90
2015,06,30,12,43,27.00
2015,06,30,12,44,27.00
2015,06,30,12,45,26.90
2015,06,30,12,46,26.80
2015,06,30,12,47,26.60
2015,06,30,12,48,26.50
2015,06,30,12,49,26.40
2015,06,30,12,50,26.40
2015,06,30,12,51,26.40
2015,06,30,12,52,26.60
2015,06,30,12,53,26.60
2015,06,30,12,54,26.60
2015,06,30,12,55,26.60
2015,06,30,12,56,26.50
2015,06,30,12,57,26.30
2015,06,30,12,58,26.10
2015,06,30,12,59,26.00
2015,06,30,13,00,26.10
2015,06,30,13,01,26.20
2015,06,30,13,02,26.20
2015,06,30,13,03,26.10
2015,06,30,13,04,26.10
2015,06,30,13,05,26.10
2015,06,30,13,06,26.20
2015,06,30,13,07,26.40
2015,06,30,13,08,26.40
2015,06,30,13,09,26.40
2015,06,30,13,10,26.10
2015,06,30,13,11,26.00
2015,06,30,13,12,25.90
2015,06,30,13,13,25.80
2015,06,30,13,14,25.80
2015,06,30,13,15,25.70
2015,06,30,13,16,25.70
2015,06,30,13,17,25.80
2015,06,30,13,18,25.80
2015,06,30,13,19,25.80
2015,06,30,13,20,25.80
2015,06,30,13,21,25.70
2015,06,30,13,22,25.70
2015,06,30,13,23,25.70
2015,06,30,13,24,25.70
2015,06,30,13,25,25.50
2015,06,30,13,26,25.50
2015,06,30,13,27,25.50
2015,06,30,13,28,25.50
2015,06,30,13,29,25.60
2015,06,30,13,30,25.60
2015,06,30,13,31,25.50
2015,06,30,13,32,25.30
2015,06,30,13,33,25.30
2015,06,30,13,34,25.20
2015,06,30,13,35,25.10
2015,06,30,13,36,25.00
2015,06,30,13,37,25.10
2015,06,30,13,38,25.20
2015,06,30,13,39,25.30
2015,06,30,13,40,25.40
2015,06,30,13,41,25.40
2015,06,30,13,42,25.50
2015,06,30,13,43,25.50
2015,06,30,13,44,25.50
2015,06,30,13,45,25.50
2015,06,30,13,46,25.40
2015,06,30,13,47,25.40
2015,06,30,13,48,25.40
2015,06,30,13,49,25.40
2015,06,30,13,50,25.40
2015,06,30,13,51,25.40
2015,06,30,13,52,25.40
2015,06,30,13,53,25.40
2015,06,30,13,54,25.40
2015,06,30,13,55,25.40
2015,06,30,13,56,25.20
2015,06,30,13,57,25.00
2015,06,30,13,58,24.90
2015,06,30,13,59,24.70
2015,06,30,14,00,24.60
2015,06,30,14,01,24.60
2015,06,30,14,02,24.50
2015,06,30,14,03,24.30
2015,06,30,14,04,24.30
2015,06,30,14,05,24.30
2015,06,30,14,06,24.20
2015,06,30,14,07,24.00
2015,06,30,14,08,23.80
2015,06,30,14,09,23.70
2015,06,30,14,10,23.80
2015,06,30,14,11,23.90
2015,06,30,14,12,23.90
2015,06,30,14,13,23.80
2015,06,30,14,14,23.70
2015,06,30,14,15,23.70
2015,06,30,14,16,23.70
2015,06,30,14,17,23.70
2015,06,30,14,18,23.70
2015,06,30,14,19,23.70
2015,06,30,14,20,23.70
2015,06,30,14,21,23.70
2015,06,30,14,22,23.70
2015,06,30,14,23,23.70
2015,06,30,14,24,23.60
2015,06,30,14,25,23.50
2015,06,30,14,26,23.20
2015,06,30,14,27,23.00
2015,06,30,14,28,22.80
2015,06,30,14,29,22.70
2015,06,30,14,30,22.60
2015,06,30,14,31,22.60
2015,06,30,14,32,22.40
2015,06,30,14,33,22.40
2015,06,30,14,34,22.40
2015,06,30,14,35,22.40
2015,06,30,14,36,22.40
2015,06,30,14,37,22.10
2015,06,30,14,38,21.80
2015,06,30,14,39,21.70
2015,06,30,14,40,21.60
2015,06,30,14,41,21.60
2015,06,30,14,42,21.50
2015,06,30,14,43,21.40
2015,06,30,14,44,21.30
2015,06,30,14,45,21.30
2015,06,30,14,46,21.30
2015,06,30,14,47,21.30
2015,06,30,14,48,21.30
2015,06,30,14,49,21.30
2015,06,30,14,50,21.30
2015,06,30,14,51,21.30
2015,06,30,14,52,21.30
2015,06,30,14,53,21.30
2015,06,30,14,54,21.30
2015,06,30,14,55,21.30
2015,06,30,14,56,21.30
2015,06,30,14,57,21.40
2015,06,30,14,58,21.50
2015,06,30,14,59,21.60
2015,06,30,15,00,21.70
2015,06,30,15,01,21.90
2015,06,30,15,02,22.00
2015,06,30,15,03,22.00
2015,06,30,15,04,21.90
2015,06,30,15,05,21.90
2015,06,30,15,06,21.90
2015,06,30,15,07,21.90
2015,06,30,15,08,21.80
2015,06,30,15,09,21.80
2015,06,30,15,10,21.80
2015,06,30,15,11,21.90
2015,06,30,15,12,21.90
2015,06,30,15,13,22.00
2015,06,30,15,14,22.10
2015,06,30,15,15,22.30
2015,06,30,15,16,22.40
2015,06,30,15,17,22.60
2015,06,30,15,18,22.60
2015,06,30,15,19,22.70
2015,06,30,15,20,22.70
2015,06,30,15,21,22.80
2015,06,30,15,22,22.80
2015,06,30,15,23,22.90
2015,06,30,15,24,22.90
2015,06,30,15,25,23.00
2015,06,30,15,26,22.90
2015,06,30,15,27,22.90
2015,06,30,15,28,22.80
2015,06,30,15,29,22.70
2015,06,30,15,30,22.70
2015,06,30,15,31,22.60
2015,06,30,15,32,22.60
2015,06,30,15,33,22.60
2015,06,30,15,34,22.80
2015,06,30,15,35,22.90
2015,06,30,15,36,22.90
2015,06,30,15,37,22.90
2015,06,30,15,38,23.00
2015,06,30,15,39,23.10
2015,06,30,15,40,23.20
2015,06,30,15,41,23.30
2015,06,30,15,42,23.30
2015,06,30,15,43,23.30
2015,06,30,15,44,23.30
2015,06,30,15,45,23.30
2015,06,30,15,46,23.30
2015,06,30,15,47,23.20
2015,06,30,15,48,23.20
2015,06,30,15,49,23.20
2015,06,30,15,50,23.30
2015,06,30,15,51,23.30
2015,06,30,15,52,23.30
2015,06,30,15,53,23.40
2015,06,30,15,54,23.50
2015,06,30,15,55,23.60
2015,06,30,15,56,23.80
2015,06,30,15,57,23.90
2015,06,30,15,58,24.20
2015,06,30,15,59,24.30
2015,06,30,16,00,24.30
2015,06,30,16,01,24.20
2015,06,30,16,02,24.20
2015,06,30,16,03,24.20
2015,06,30,16,04,24.40
2015,06,30,16,05,24.50
2015,06,30,16,06,24.50
2015,06,30,16,07,24.50
2015,06,30,16,08,24.40
2015,06,30,16,09,24.50
2015,06,30,16,10,24.50
2015,06,30,16,11,24.50
2015,06,30,16,12,24.30
2015,06,30,16,13,24.20
2015,06,30,16,14,24.20
2015,06,30,16,15,24.20
2015,06,30,16,16,24.10
2015,06,30,16,17,24.10
2015,06,30,16,18,24.20
2015,06,30,16,19,24.20
2015,06,30,16,20,24.10
2015,06,30,16,21,24.10
2015,06,30,16,22,24.00
2015,06,30,16,23,23.90
2015,06,30,16,24,23.80
2015,06,30,16,25,23.80
2015,06,30,16,26,23.70
2015,06,30,16,27,23.70
2015,06,30,16,28,23.70
2015,06,30,16,29,23.70
2015,06,30,16,30,23.80
2015,06,30,16,31,23.80
2015,06,30,16,32,23.90
2015,06,30,16,33,23.80
2015,06,30,16,34,23.80
2015,06,30,16,35,23.70
2015,06,30,16,36,23.50
2015,06,30,16,37,23.40
2015,06,30,16,38,23.50
2015,06,30,16,39,23.60
2015,06,30,16,40,23.70
2015,06,30,16,41,23.70
2015,06,30,16,42,23.70
2015,06,30,16,43,23.80
2015,06,30,16,44,23.80
2015,06,30,16,45,23.80
2015,06,30,16,46,23.80
2015,06,30,16,47,23.70
2015,06,30,16,48,23.70
2015,06,30,16,49,23.70
2015,06,30,16,50,23.70
2015,06,30,16,51,23.80
2015,06,30,16,52,23.80
2015,06,30,16,53,23.80
2015,06,30,16,54,23.90
2015,06,30,16,55,24.00
2015,06,30,16,56,24.10
2015,06,30,16,57,24.20
2015,06,30,16,58,24.20
2015,06,30,16,59,24.30
2015,06,30,17,00,24.40
2015,06,30,17,01,24.50
2015,06,30,17,02,24.50
2015,06,30,17,03,24.50
2015,06,30,17,04,24.50
2015,06,30,17,05,24.60
2015,06,30,17,06,24.50
2015,06,30,17,07,24.50
2015,06,30,17,08,24.40
2015,06,30,17,09,24.40
2015,06,30,17,10,24.50
2015,06,30,17,11,24.50
2015,06,30,17,12,24.60
2015,06,30,17,13,24.70
2015,06,30,17,14,24.80
2015,06,30,17,15,24.80
2015,06,30,17,16,24.90
2015,06,30,17,17,25.00
2015,06,30,17,18,25.00
2015,06,30,17,19,25.00